Wind_Speed
5 4 3 3 2 2 3 4 5 7 8 9 8 8 7 7 5 3 5 6 7 7 7 7 8 9 10 10 11 12 12 13 15 16 16 16 15 14 12 10 8 6 4 3 2 2 4 5 7
5 4 3 2 2 3 2 3 4 6 7 7 7 6 7 7 5 3 3 4 5 6 6 6 6 7 7 8 8 9 10 11 13 14 15 15 15 14 13 12 10 7 5 4 2 1 2 4 5
5 5 5 4 4 4 2 2 3 5 5 5 6 5 6 6 4 3 2 2 3 4 5 5 5 6 6 6 6 7 7 8 10 11 13 14 14 14 14 12 10 9 7 5 3 2 1 1 3
4 5 4 3 2 2 2 1 2 4 4 4 5 5 4 4 4 3 2 1 1 2 3 4 4 5 5 5 4 4 4 5 6 8 10 11 12 13 13 12 11 9 8 6 5 3 2 1 1
2 2 3 3 2 0 1 0 1 4 4 5 5 5 4 4 4 3 2 1 1 2 2 2 3 4 4 4 3 2 1 1 2 4 6 8 9 11 11 11 11 10 9 8 7 5 4 3 2
2 2 3 2 2 2 1 2 1 3 3 3 4 5 5 5 4 3 3 2 0 2 3 2 2 3 4 4 4 3 3 2 2 2 3 4 6 7 8 9 10 10 10 9 8 7 6 5 4
5 3 3 3 4 4 3 2 2 1 2 2 3 4 4 4 4 4 3 3 1 2 4 4 4 3 4 4 4 4 4 4 4 4 4 5 4 5 6 7 8 9 9 9 9 8 7 6 5
7 7 6 5 6 6 5 5 6 5 4 3 4 5 5 4 3 3 3 3 1 2 4 5 6 5 5 5 5 5 6 6 6 6 7 7 6 5 5 5 6 7 8 9 9 9 8 6 5
11 10 9 8 8 9 9 8 9 8 8 8 7 8 8 7 5 2 3 4 3 2 4 6 6 7 7 7 7 7 8 8 8 8 8 9 9 8 7 6 6 6 6 7 8 8 8 7 6
13 13 12 12 12 12 10 11 12 13 12 12 12 11 11 11 9 7 5 5 6 5 5 6 7 7 7 8 8 9 10 10 11 11 11 11 12 11 10 9 8 7 7 6 7 7 7 7 6
14 14 15 15 14 14 13 14 15 16 18 18 17 15 14 14 14 12 11 9 8 8 8 8 7 8 8 8 8 10 11 12 13 13 14 14 15 14 13 12 11 10 9 8 8 8 7 6 6
14 15 16 18 19 19 20 19 19 19 21 23 22 21 20 18 17 17 16 14 13 11 11 10 10 9 10 9 9 10 10 12 13 14 15 17 17 18 17 16 15 14 13 12 11 10 9 8 7
16 17 18 20 22 24 24 24 23 22 23 25 26 26 25 23 22 20 19 18 17 15 13 13 11 11 11 11 11 11 11 11 12 13 15 17 19 19 20 20 19 18 17 16 15 15 13 11 10
20 21 21 23 25 26 26 26 26 26 26 27 28 28 28 27 26 24 23 21 20 19 18 16 15 15 14 13 13 13 13 13 13 14 15 16 18 19 21 22 21 21 20 19 19 18 17 16 14
23 24 25 26 27 28 28 27 28 28 29 29 30 31 31 30 28 27 26 25 24 23 22 20 19 18 17 17 16 16 16 16 16 16 17 17 18 19 20 21 22 23 23 22 22 21 20 20 18
25 26 26 28 29 30 30 30 29 30 31 32 34 34 34 33 31 31 30 29 28 27 26 24 23 22 21 20 20 19 20 20 20 20 20 19 20 20 20 22 23 23 24 24 23 23 23 23 22
25 27 28 29 30 30 31 32 32 34 35 35 36 37 37 37 35 34 34 34 32 32 30 29 27 26 24 23 23 23 23 24 24 23 23 23 22 22 22 23 23 24 24 25 25 24 25 25 25
24 26 27 28 28 29 31 33 35 37 39 39 39 38 37 37 37 37 37 37 36 36 35 33 32 31 29 27 27 27 27 28 28 28 27 27 26 25 25 24 24 25 25 25 25 25 25 27 28
22 22 23 25 27 29 31 34 37 39 42 43 43 43 42 40 39 39 40 40 40 40 39 38 36 35 34 32 31 30 30 31 31 32 32 31 29 28 27 27 26 26 26 26 25 26 26 27 28
21 22 22 24 26 28 30 33 35 38 40 42 44 45 44 41 40 41 41 42 42 42 42 42 41 39 37 35 34 33 33 33 34 35 35 33 31 30 29 29 27 27 27 27 26 26 26 25 26
21 22 22 23 24 28 31 33 34 36 38 40 41 43 45 44 43 41 41 42 43 43 42 42 42 40 39 38 36 35 35 34 35 36 36 35 32 31 29 29 28 27 27 27 27 26 26 25 25
20 22 23 24 25 26 29 32 33 35 37 39 41 42 42 42 42 40 40 42 42 43 42 42 41 40 39 38 37 37 36 35 35 36 35 34 32 30 28 29 28 28 27 27 25 25 25 26 26
20 21 23 23 23 25 26 29 30 30 31 34 37 39 38 35 35 36 38 39 39 39 40 40 40 40 39 38 38 37 36 35 34 34 34 33 32 32 30 28 27 28 27 26 27 26 27 27 27
20 21 22 21 21 22 23 24 25 24 25 27 30 32 32 32 31 29 30 34 33 34 35 36 37 38 38 38 37 37 36 35 34 34 34 34 33 32 32 30 27 27 27 25 26 26 27 27 27
19 20 19 19 19 19 19 20 21 21 22 23 24 25 26 27 27 27 26 26 27 29 31 33 35 36 37 37 36 36 36 35 34 34 35 36 35 35 35 32 30 28 27 26 26 26 27 28 28
17 17 16 16 16 16 17 17 19 19 20 20 20 20 20 20 21 19 20 22 25 27 29 31 33 34 35 36 36 36 36 36 36 37 37 37 37 37 36 34 32 31 30 28 27 27 27 27 28
16 16 16 15 15 15 15 15 16 16 17 17 16 14 13 13 13 14 16 18 22 25 27 29 31 33 35 35 36 37 37 38 39 39 38 38 38 37 35 34 33 33 31 29 29 28 28 28 29
16 17 17 15 15 15 15 15 15 14 13 12 11 10 10 8 9 11 12 13 15 18 21 24 26 28 31 33 35 36 37 37 37 36 36 35 33 32 32 32 32 31 31 30 30 30 30 29 30
17 17 17 15 15 15 15 16 17 16 15 14 12 11 9 8 6 4 6 7 8 10 13 16 17 19 22 24 27 29 29 29 29 29 29 28 27 27 27 28 28 28 28 28 29 29 29 31 32
17 17 16 16 16 16 16 17 18 18 17 16 15 14 13 11 9 6 3 2 2 2 3 5 7 8 10 12 14 16 17 18 18 17 17 16 16 17 18 19 21 22 22 23 24 25 25 26 27
Wind_Direction
58 58 49 31 7 337 340 0 22 37 51 51 43 35 38 46 47 58 74 86 84 89 97 101 97 87 81 79 76 72 69 67 67 66 66 65 64 63 62 62 65 70 76 88 124 182 204 212 214
36 37 31 351 311 285 318 359 21 34 49 58 51 38 33 42 37 31 74 97 94 93 99 110 111 102 92 86 83 78 73 70 68 66 64 63 62 62 61 61 62 63 65 66 74 149 211 215 212
23 24 22 338 282 264 287 338 31 47 45 47 46 41 35 37 34 18 64 115 109 101 102 111 122 120 110 100 94 87 79 72 67 64 62 59 59 59 60 60 60 60 60 59 57 58 115 201 215
31 14 360 340 274 248 264 327 65 58 50 41 37 35 47 41 35 22 36 116 143 125 114 114 124 133 133 127 118 105 90 73 64 60 58 56 56 56 56 56 55 55 55 53 51 54 66 80 155
39 2 338 320 296 221 217 300 58 63 47 40 34 30 39 44 35 18 18 58 183 194 169 142 139 143 149 156 156 158 154 82 52 49 49 50 51 51 52 53 51 49 47 46 46 49 55 61 75
226 265 287 289 306 314 302 337 13 79 72 41 22 25 33 44 40 21 15 24 248 228 224 218 191 175 173 179 193 213 236 252 286 342 8 24 33 37 40 45 45 43 41 40 42 44 49 58 68
230 251 270 289 295 289 283 300 310 332 40 26 346 356 7 26 41 31 14 10 351 239 234 235 235 223 211 210 217 233 249 260 273 292 308 324 345 4 15 26 33 34 32 32 34 39 44 51 63
235 240 255 279 290 284 272 276 287 299 312 315 316 321 322 331 10 27 5 359 349 247 237 238 243 246 244 241 242 249 257 263 270 281 291 298 308 321 334 351 6 16 20 21 25 29 34 40 50
244 242 247 262 272 269 266 268 288 300 303 301 298 296 298 299 301 317 329 318 307 268 250 248 250 253 255 256 258 260 263 266 268 273 281 287 293 299 302 312 326 342 353 2 10 15 20 25 32
251 250 253 259 264 259 260 272 288 295 292 287 284 283 283 286 285 283 281 292 291 278 261 254 253 257 261 265 268 268 269 270 270 271 274 278 283 288 290 292 298 307 320 330 339 348 1 8 14
260 257 259 262 265 264 263 272 280 286 288 285 282 278 275 279 282 283 280 276 277 279 276 268 260 258 260 263 269 273 273 272 272 271 271 273 276 280 282 282 285 290 295 302 309 315 324 336 346
261 261 261 263 265 267 270 273 274 278 282 283 282 279 277 275 275 275 277 276 273 271 271 272 271 268 268 268 269 273 274 274 273 271 269 268 270 273 275 278 279 282 285 287 290 292 296 303 310
261 262 261 260 261 265 269 272 274 274 275 277 279 280 278 275 273 270 268 267 268 265 262 260 259 259 262 267 270 271 271 269 268 267 266 266 267 269 271 273 275 277 279 281 282 281 281 284 287
262 263 263 262 262 264 268 271 274 274 273 272 274 275 275 275 273 271 267 263 259 257 255 253 252 253 256 261 265 269 272 271 269 266 264 264 265 266 268 269 270 272 273 275 276 276 276 277 279
269 269 269 268 267 267 267 268 269 271 270 269 269 269 270 270 271 270 267 264 261 257 253 251 253 255 258 262 267 271 272 270 268 266 264 262 262 263 265 267 268 269 271 274 276 277 276 275 273
275 274 274 273 272 271 270 269 267 266 265 265 265 264 264 264 264 264 265 265 263 260 254 252 252 255 258 261 265 269 271 271 269 266 264 262 260 259 260 263 265 267 270 273 274 274 272 270 269
280 280 279 277 276 275 273 271 266 264 264 263 262 260 259 259 260 261 262 263 263 262 261 258 256 255 256 258 260 263 267 269 269 268 265 262 260 259 258 258 261 263 265 268 269 270 268 267 267
283 282 282 282 281 278 275 271 269 266 265 265 262 259 256 256 258 260 261 262 262 263 263 262 261 261 260 261 261 261 264 266 267 267 266 263 260 258 259 258 259 262 262 264 265 266 268 265 263
288 288 288 288 286 282 278 274 271 270 269 267 266 264 261 261 262 263 262 261 261 261 262 262 262 263 263 262 262 261 262 264 267 267 266 264 260 258 258 258 260 262 263 264 266 266 268 269 263
298 299 296 293 291 287 283 280 276 273 271 270 268 268 266 266 266 264 261 259 259 259 260 260 261 262 262 262 261 260 260 261 263 265 265 264 261 256 256 257 260 261 262 264 265 267 269 272 267
305 304 302 297 292 289 286 284 282 280 276 273 272 270 268 269 266 262 258 256 256 256 256 257 258 258 259 259 258 258 258 259 261 263 265 263 263 256 254 256 258 260 261 264 265 266 269 271 267
305 305 303 300 296 289 285 283 284 281 277 272 271 270 270 269 266 260 255 253 252 253 252 253 253 254 255 255 255 255 255 256 259 264 268 268 269 264 259 258 259 259 262 264 266 266 270 269 264
311 310 308 306 302 295 290 286 285 282 276 272 271 269 268 267 264 260 255 250 249 248 248 248 249 250 251 251 252 252 253 254 257 262 267 269 274 269 269 268 264 263 265 265 266 269 269 268 263
319 318 316 314 311 304 300 295 293 288 284 280 276 271 268 263 262 262 256 247 246 245 245 246 247 247 248 248 249 251 252 254 256 261 266 273 275 274 275 277 278 272 269 268 268 267 267 265 261
327 327 326 325 324 319 316 310 306 299 295 293 286 280 274 269 269 266 261 252 250 248 247 247 247 247 247 248 249 251 253 255 259 263 267 272 275 277 278 278 277 271 269 266 265 264 262 260 258
336 339 341 341 339 337 335 326 318 307 303 300 298 294 287 279 275 274 271 261 258 255 251 249 249 249 248 249 251 253 255 259 263 266 269 272 273 274 273 271 269 267 266 263 262 262 260 258 257
353 356 357 358 358 354 353 348 338 327 320 316 313 312 308 292 283 278 273 268 263 260 256 255 253 252 252 252 253 256 259 263 266 269 271 272 272 271 268 265 263 264 263 261 258 259 261 260 257
6 8 9 10 11 9 6 7 4 359 353 347 342 339 333 312 290 284 279 277 275 270 264 261 259 258 257 256 258 261 263 267 270 272 273 272 270 268 264 263 261 260 260 259 259 260 259 258 256
17 17 19 19 20 19 22 28 29 29 26 25 28 25 16 11 356 317 295 288 287 278 270 264 265 264 263 262 262 263 265 268 270 272 272 270 268 265 262 261 260 259 258 258 259 260 258 255 255
24 22 25 27 27 27 35 41 41 42 39 37 40 40 38 42 41 39 16 349 321 298 287 279 274 272 269 269 267 266 266 268 269 269 268 267 264 262 260 259 257 256 254 253 252 250 251 252 253
Height
5924 5923 5923 5924 5925 5924 5923 5923 5922 5922 5923 5922 5921 5921 5920 5920 5921 5922 5920 5919 5919 5919 5919 5919 5919 5919 5919 5918 5918 5917 5917 5916 5915 5914 5913 5912 5911 5909 5908 5908 5907 5907 5906 5906 5906 5905 5905 5905 5905
5925 5925 5925 5926 5925 5924 5924 5923 5923 5923 5923 5923 5922 5922 5921 5921 5920 5919 5919 5920 5920 5920 5920 5920 5920 5920 5920 5920 5920 5919 5919 5918 5917 5916 5915 5914 5912 5911 5910 5909 5908 5907 5907 5906 5905 5905 5905 5904 5904
5926 5925 5926 5926 5925 5925 5924 5924 5924 5924 5923 5923 5923 5923 5923 5922 5921 5919 5919 5920 5920 5921 5921 5921 5921 5922 5922 5922 5921 5921 5920 5920 5919 5918 5917 5916 5914 5913 5912 5910 5909 5908 5907 5906 5905 5905 5904 5904 5904
5927 5927 5927 5927 5925 5924 5924 5924 5924 5925 5925 5924 5924 5924 5923 5923 5921 5919 5919 5920 5920 5921 5921 5922 5922 5922 5923 5923 5923 5922 5922 5921 5920 5919 5918 5917 5916 5915 5913 5912 5910 5909 5908 5907 5906 5905 5904 5904 5903
5927 5927 5927 5926 5925 5925 5924 5924 5924 5925 5925 5924 5924 5923 5924 5923 5921 5920 5919 5920 5921 5921 5922 5922 5922 5923 5923 5923 5923 5923 5923 5922 5921 5920 5920 5919 5918 5917 5915 5913 5912 5910 5909 5908 5906 5905 5904 5904 5903
5927 5927 5927 5926 5925 5924 5924 5923 5924 5925 5925 5925 5924 5924 5924 5924 5922 5920 5920 5920 5921 5921 5921 5922 5922 5923 5923 5923 5923 5923 5923 5922 5922 5921 5920 5919 5919 5918 5916 5915 5913 5912 5910 5909 5908 5906 5905 5905 5904
5927 5926 5926 5926 5925 5924 5924 5923 5923 5924 5925 5925 5925 5924 5923 5924 5923 5920 5919 5920 5920 5920 5921 5921 5922 5922 5922 5922 5922 5922 5922 5922 5922 5921 5921 5920 5919 5918 5917 5916 5914 5913 5912 5910 5909 5908 5907 5906 5905
5926 5927 5925 5925 5925 5924 5924 5923 5923 5924 5925 5925 5925 5924 5923 5923 5923 5921 5920 5920 5920 5920 5920 5920 5921 5921 5922 5922 5922 5922 5922 5922 5922 5921 5921 5920 5919 5919 5917 5916 5915 5914 5913 5912 5910 5909 5908 5907 5906
5925 5926 5925 5925 5924 5924 5923 5922 5922 5923 5924 5924 5924 5924 5923 5922 5922 5922 5920 5919 5920 5920 5919 5919 5920 5920 5920 5921 5921 5921 5921 5921 5921 5921 5920 5919 5919 5918 5917 5916 5915 5914 5913 5912 5911 5910 5909 5908 5907
5924 5924 5924 5924 5923 5922 5921 5921 5921 5921 5922 5922 5922 5922 5921 5920 5920 5921 5921 5920 5919 5919 5919 5919 5919 5919 5919 5919 5919 5919 5920 5920 5920 5920 5919 5918 5918 5917 5917 5916 5915 5914 5913 5912 5911 5910 5910 5909 5908
5923 5923 5923 5922 5921 5920 5920 5920 5919 5919 5918 5918 5919 5920 5920 5919 5918 5918 5919 5920 5919 5918 5917 5917 5917 5917 5917 5917 5917 5917 5917 5917 5917 5918 5917 5917 5916 5916 5915 5915 5914 5913 5912 5912 5911 5910 5909 5909 5908
5920 5920 5920 5920 5919 5918 5917 5917 5917 5916 5915 5914 5914 5915 5916 5916 5916 5915 5916 5917 5917 5917 5916 5915 5915 5914 5914 5914 5914 5914 5914 5914 5914 5915 5914 5914 5913 5913 5913 5912 5912 5911 5911 5911 5910 5909 5909 5908 5908
5917 5916 5916 5915 5914 5913 5912 5912 5913 5913 5912 5910 5910 5910 5910 5911 5911 5911 5912 5913 5913 5914 5915 5914 5913 5912 5912 5911 5911 5911 5911 5911 5911 5911 5911 5911 5910 5910 5909 5909 5909 5909 5908 5908 5908 5907 5907 5907 5907
5913 5912 5911 5910 5909 5908 5909 5909 5908 5908 5907 5906 5905 5904 5904 5905 5905 5905 5906 5908 5908 5909 5910 5910 5910 5909 5909 5908 5908 5908 5908 5907 5907 5907 5907 5907 5907 5906 5905 5905 5905 5905 5905 5905 5905 5905 5904 5904 5904
5909 5908 5907 5906 5905 5904 5904 5904 5903 5902 5902 5900 5898 5898 5897 5898 5898 5898 5899 5900 5901 5902 5904 5904 5905 5904 5904 5904 5904 5904 5903 5903 5903 5903 5903 5903 5903 5902 5901 5901 5901 5900 5900 5901 5900 5900 5900 5900 5901
5904 5903 5902 5900 5899 5898 5899 5897 5896 5895 5894 5892 5891 5890 5890 5890 5891 5891 5891 5892 5893 5894 5896 5897 5898 5899 5899 5900 5899 5899 5899 5898 5898 5898 5897 5897 5897 5898 5897 5896 5896 5896 5895 5895 5896 5896 5896 5896 5896
5898 5896 5895 5894 5892 5891 5890 5889 5888 5885 5884 5882 5881 5881 5881 5881 5882 5883 5883 5883 5884 5885 5887 5889 5890 5891 5893 5893 5893 5893 5893 5892 5892 5891 5891 5891 5891 5891 5892 5892 5891 5891 5891 5890 5890 5891 5890 5890 5891
5892 5890 5888 5886 5884 5883 5881 5879 5877 5875 5873 5872 5872 5872 5871 5872 5873 5874 5874 5875 5875 5876 5878 5880 5881 5882 5885 5886 5886 5886 5886 5885 5885 5884 5885 5885 5884 5884 5884 5885 5885 5885 5885 5885 5885 5885 5885 5884 5885
5886 5884 5881 5879 5876 5874 5871 5869 5867 5865 5863 5862 5862 5862 5862 5862 5863 5864 5865 5865 5866 5866 5868 5870 5871 5873 5875 5877 5878 5878 5879 5878 5877 5877 5876 5877 5877 5877 5877 5877 5878 5878 5878 5878 5878 5878 5878 5878 5878
5879 5877 5875 5872 5869 5866 5862 5860 5857 5855 5853 5852 5851 5851 5850 5850 5851 5852 5853 5854 5855 5856 5857 5859 5861 5863 5865 5867 5868 5869 5870 5870 5870 5869 5867 5867 5868 5869 5869 5870 5870 5871 5871 5871 5872 5871 5871 5871 5871
5873 5871 5869 5866 5863 5858 5854 5851 5848 5845 5843 5841 5839 5838 5838 5838 5839 5840 5841 5842 5843 5845 5846 5848 5850 5852 5854 5856 5858 5860 5860 5861 5860 5858 5856 5856 5858 5859 5860 5862 5862 5863 5863 5863 5864 5865 5864 5864 5864
5869 5865 5862 5859 5856 5852 5848 5843 5839 5835 5833 5830 5828 5827 5826 5826 5826 5827 5829 5830 5831 5833 5835 5837 5840 5842 5844 5846 5848 5850 5851 5851 5851 5849 5848 5847 5848 5849 5851 5852 5853 5854 5855 5855 5856 5856 5857 5857 5857
5864 5859 5856 5852 5848 5844 5839 5835 5831 5827 5824 5821 5818 5816 5815 5815 5814 5816 5817 5819 5821 5823 5825 5827 5830 5832 5834 5836 5838 5840 5841 5842 5843 5842 5841 5840 5840 5839 5840 5842 5844 5845 5846 5847 5847 5848 5849 5849 5849
5859 5854 5850 5846 5842 5837 5832 5828 5823 5819 5815 5812 5810 5807 5806 5805 5805 5806 5807 5809 5811 5814 5816 5818 5821 5823 5825 5827 5829 5831 5832 5833 5834 5835 5834 5832 5832 5832 5833 5834 5835 5836 5837 5838 5839 5840 5841 5841 5841
5855 5851 5846 5841 5836 5831 5826 5821 5817 5812 5808 5805 5803 5800 5798 5798 5797 5798 5800 5802 5805 5807 5809 5811 5813 5815 5817 5818 5820 5822 5823 5825 5826 5827 5827 5826 5825 5826 5827 5827 5828 5828 5829 5830 5830 5831 5832 5832 5833
5851 5847 5843 5838 5833 5827 5822 5817 5814 5808 5804 5800 5797 5795 5793 5792 5793 5794 5795 5798 5800 5801 5802 5804 5806 5807 5809 5811 5812 5814 5815 5816 5817 5818 5818 5818 5818 5819 5819 5819 5820 5821 5821 5821 5822 5823 5823 5824 5825
5848 5843 5839 5835 5830 5825 5820 5815 5810 5805 5801 5797 5794 5791 5789 5789 5789 5790 5791 5793 5794 5794 5796 5797 5798 5800 5802 5803 5805 5806 5807 5808 5808 5808 5808 5809 5809 5809 5809 5810 5811 5812 5812 5813 5813 5814 5815 5816 5816
5847 5842 5838 5833 5829 5824 5820 5814 5810 5804 5800 5796 5792 5790 5788 5787 5787 5788 5788 5788 5789 5789 5790 5791 5792 5793 5794 5796 5797 5798 5799 5799 5799 5799 5798 5798 5799 5799 5799 5800 5801 5802 5803 5803 5805 5806 5806 5807 5808
5846 5842 5837 5833 5829 5824 5819 5817 5810 5805 5801 5797 5793 5791 5788 5787 5787 5786 5786 5786 5786 5786 5787 5787 5787 5788 5789 5789 5790 5791 5791 5791 5791 5791 5790 5790 5790 5790 5790 5791 5792 5793 5794 5795 5796 5797 5798 5799 5799
5846 5842 5838 5834 5830 5825 5821 5820 5812 5808 5804 5800 5797 5794 5791 5790 5789 5787 5787 5786 5786 5785 5785 5785 5785 5785 5785 5785 5785 5785 5785 5785 5785 5785 5784 5784 5784 5784 5784 5784 5785 5786 5787 5788 5788 5789 5790 5791 5791